Hourly Data Report for October 06, 2017

All times are specified in Local Standard Time (LST). Add 1 hour to adjust for Daylight Saving Time where and when it is observed.

GIMLI CLIMATE
MANITOBA

50°38'00.000" N
97°03'00.000" W
230.10 m
5031042
71748
PGH

Download Data

Hourly Data (October 2017)
Hourly Data Report for October 6, 2017
Temp Definition
°C
Dew Point Temp Definition
°C
Rel Hum Definition
%
Wind Dir Definition
10's deg

Wind Spd Definition
km/h
Visibility Definition
km
Stn Press Definition
kPa
Hmdx Definition


Wind Chill Definition


Weather Definition


TIME
00:00 1.7 -1.0 82 19 5   98.86     LegendNANA
01:00 1.5 -0.9 84 21 13   98.83     LegendNANA
02:00 2.2 -0.6 82 21 12   98.77     LegendNANA
03:00 1.9 -0.6 84 21 14   98.73     LegendNANA
04:00 1.4 -0.9 85 22 12   98.67     LegendNANA
05:00 0.7 -1.0 88 21 11   98.60     LegendNANA
06:00 0.5 -0.9 91 20 10   98.55     LegendNANA
07:00 0.7 -0.7 91 19 14   98.52     LegendNANA
08:00 4.6 1.7 81 19 14   98.48     LegendNANA
09:00 9.7 2.4 61 21 19   98.43     LegendNANA
10:00 12.6 2.6 50 23 21   98.33     LegendNANA
11:00 15.0 2.3 42 22 24   98.25     LegendNANA
12:00 15.7 2.5 41 19 30   98.16     LegendNANA
13:00 17.4 1.7 35 20 30   98.01     LegendNANA
14:00 17.5 0.7 32 20 31   97.88     LegendNANA
15:00 17.8 1.3 33 20 34   97.75     LegendNANA
16:00 17.6 -0.3 30 21 28   97.65     LegendNANA
17:00 16.5 -0.7 31 22 17   97.57     LegendNANA
18:00 12.3 0.9 46 19 14   97.50     LegendNANA
19:00 10.8 2.0 55 18 14   97.44     LegendNANA
20:00 9.0 3.0 66 18 13   97.34     LegendNANA
21:00 9.2 3.7 68 19 18   97.26     LegendNANA
22:00 9.9 4.2 68 18 22   97.18     LegendNANA
23:00 9.5 4.2 69 18 26   97.07     LegendNANA

Notes on Data Quality.

Legend

  • E = Estimated
  • M = Missing
  • NA = Not Available
  • ‡ = Partner data that is not subject to review by the National Climate Archives
Date modified: